#timestamp,LO_Frequency,Hit,StdDev 
1704074415.2,286046999.9,N
1704074435.1,286046999.8,N
1704074436.0,286046999.8,N
1704074455.8,286047000.2,N
1704074475.6,286047002.3,N
1704074495.5,286047000.5,N
1704074515.3,286047002.3,N
1704074535.1,286047001.9,N
1704074555.9,286047002.5,N
1704074575.7,286047002.8,N
1704074595.6,286047000.2,N
1704074615.4,286047000.1,N
1704074635.2,286046998.1,N
1704074655.1,286046998.4,N
1704074656.0,286046998.4,N
1704074675.8,286046999.1,N
1704074695.7,286047001.2,N
1704074715.5,286046998.3,N
1704074735.3,286047000.4,N
1704074755.2,286047001.0,N
1704074775.0,286047000.5,N
1704074775.9,286047000.5,N
1704074795.8,286047001.5,N
1704074815.6,286047000.2,N
1704074835.4,286047000.8,N
1704074855.3,286047001.2,N
1704074875.1,286047001.1,N
1704074895.9,286047001.2,N
1704074915.7,286047000.5,N
1704074935.5,286047001.0,N
1704074955.4,286046998.1,N
1704074975.2,286046999.3,N
1704074995.0,286046998.4,N
1704074995.9,286046998.4,N
1704075015.8,286046998.7,N
1704075035.6,286046997.8,N
1704075055.5,286046999.2,N
1704075075.3,286046999.0,N
1704075095.1,286046998.1,N
1704075115.9,286046999.3,N
1704075135.7,286046998.3,N
1704075155.5,286047000.9,N
1704075175.4,286047000.2,N
1704075195.2,286047002.0,N
1704075215.1,286046999.7,N
1704075216.0,286046999.7,N
1704075235.8,286046999.9,N
1704075255.6,286047001.0,N
1704075275.5,286046998.2,N
1704075295.3,286046998.9,N
1704075315.1,286047000.7,N
1704075335.9,286046998.6,N
1704075355.7,286046998.4,N
1704075375.6,286046999.1,N
1704075395.4,286047000.8,N
1704075415.2,286046998.6,N
1704075435.1,286047000.6,N
1704075436.0,286047000.6,N
1704075455.8,286047001.1,N
1704075475.6,286047000.4,N
1704075495.5,286047002.7,N
1704075515.3,286047002.0,N
1704075535.2,286047001.5,N
1704075555.9,286047002.0,N
1704075575.7,286047002.6,N
1704075595.6,286046999.7,N
1704075615.4,286046999.8,N
1704075635.3,286047000.2,N
1704075655.1,286047002.7,N
1704075656.0,286047002.7,N
1704075675.8,286046999.9,N
1704075695.7,286047002.3,N
1704075715.5,286046999.9,N
1704075735.3,286047000.4,N
1704075755.2,286047000.3,N
1704075775.0,286046999.7,N
1704075775.9,286046999.7,N
1704075795.8,286047002.6,N
1704075815.6,286047000.6,N
1704075835.4,286047000.2,N
1704075855.3,286047002.1,N
1704075875.1,286047000.1,N
1704075895.9,286047002.4,N
1704075915.7,286047000.5,N
1704075935.5,286046998.1,N
1704075955.4,286047001.0,N
1704075975.2,286046999.4,N
1704075995.0,286046999.3,N
1704075995.9,286046999.3,N
1704076015.8,286046999.6,N
1704076035.6,286046998.8,N
1704076055.5,286046999.4,N
1704076075.3,286046997.1,N
1704076095.1,286046997.3,N
1704076115.9,286046995.7,N
1704076135.7,286046995.5,N
1704076155.5,286046994.9,N
1704076175.4,286046996.9,N
1704076195.2,286046997.4,N
1704076215.1,286046996.5,N
1704076216.0,286046996.5,N
1704076235.8,286046999.0,N
1704076255.6,286046996.5,N
1704076275.5,286046999.3,N
1704076295.3,286046998.5,N
1704076315.1,286046999.5,N
1704076335.9,286046996.5,N
1704076355.7,286046997.8,N
1704076375.6,286046996.7,N
1704076395.4,286046997.1,N
1704076415.2,286046997.3,N
1704076435.1,286046997.2,N
1704076436.0,286046997.2,N
1704076455.8,286046997.9,N
1704076475.7,286046996.1,N
1704076495.5,286046995.5,Y
1704076515.3,286046996.5,P
1704076535.2,286046999.4,N
1704076555.0,286046999.4,N
1704076555.9,286046999.4,N
1704076575.7,286046999.6,N
1704076595.6,286047001.1,N
1704076615.4,286047001.0,N
1704076635.3,286047001.0,N
1704076655.1,286047000.7,N
1704076656.0,286047000.7,N
1704076675.8,286046998.8,N
1704076695.7,286046999.5,N
1704076715.5,286046999.6,N
1704076735.3,286046997.1,N
1704076755.2,286046997.7,N
1704076775.0,286046997.1,N
1704076775.9,286046997.1,N
1704076795.8,286046999.6,N
1704076815.6,286046996.7,N
1704076835.4,286046996.5,N
1704076855.3,286046996.9,N
1704076875.1,286046997.8,N
1704076895.9,286046996.7,N
1704076915.7,286046997.3,N
1704076935.5,286046997.6,N
1704076955.4,286046995.0,Y
1704076975.2,286046996.6,P
1704076995.1,286046997.1,N
1704076996.0,286046997.1,P
1704077015.8,286046997.1,Y
1704077035.6,286046998.5,P
1704077055.5,286046998.3,N
1704077075.3,286046999.2,N
1704077095.2,286046997.2,Y
1704077115.0,286046999.3,P
1704077115.9,286046999.3,N
1704077135.8,286046996.5,P
1704077155.6,286046999.3,N
1704077175.4,286046998.6,N
1704077195.3,286046999.0,N
1704077215.1,286046998.5,N
1704077235.9,286046999.6,N
1704077255.7,286046996.9,Y
1704077275.5,286047001.2,P
1704077295.4,286047001.2,N
1704077315.2,286046998.1,N
1704077335.0,286047002.4,N
1704077335.9,286047002.4,N
1704077355.8,286047002.6,N
1704077375.6,286047002.4,N
1704077395.5,286047000.7,N
1704077415.3,286047000.6,N
1704077435.1,286047000.6,N
1704077455.9,286046998.4,N
1704077475.7,286047000.9,N
1704077495.5,286046998.3,N
1704077515.4,286047000.6,N
1704077535.2,286047001.1,N
1704077555.1,286046998.6,N
1704077556.0,286046998.6,N
1704077575.8,286047001.2,N
1704077595.6,286047000.8,N
1704077615.5,286046999.4,N
1704077635.3,286046998.7,N
1704077655.1,286046999.0,N
1704077675.9,286046996.9,N
1704077695.7,286046996.6,N
1704077715.6,286046996.8,N
1704077735.4,286046997.4,N
1704077755.2,286046997.5,N
1704077775.1,286046996.5,N
1704077776.0,286046996.5,N
1704077795.8,286046999.2,N
1704077815.6,286046999.1,N
1704077835.5,286046997.2,N
1704077855.3,286046997.2,N
1704077875.2,286046997.9,N
1704077895.9,286046996.7,N
1704077915.7,286046999.1,N
1704077935.6,286046997.2,N
1704077955.4,286046997.7,N
1704077975.3,286046995.3,Y
1704077995.1,286046997.1,P
1704077996.0,286046997.1,P
